Kezdőlap
METAR-TAF:

METAR-TAF

Repülőterek :

Monticello Regional Airport

Monticello, Iowa, Amerikai Egyesült Államok

földrajzi szélesség: 42-14N, földrajzi hosszúság: 091-10W, magasság: 259 m

Jelenlegi meteorológiai megfigyelések

A jelentés 24 perccel ezelõtt készült, 06:15 UTC
Kelet-délkeleti szél 7 kt széllökések: 12 kt
Hőmérséklet 20°C
Páratartalom 88%
Légköri nyomás 1009 hPa
Látótávolság: 16.1 km
Derült ég

METAR: KMXO 210615Z AUTO 11007G12KT 10SM CLR 20/18 A2979 RMK AO2

Idő: 01:39 (06:39 UTC)


TAF: hiányzik

Meteorológiai megfigyelések és előrejelzések több, mint 4000 repülőtéren (METAR és TAF jelentéseket).

A térképen piros és sárga pontok jelzik az elérhető meteorológiai állomásokat.

Mozgassa az egeret a pont fölött, hogy megjelenjen az állomás neve.

Azután kattintson az időjárási megfigyelések és előrejelzések megtekintéséhez.

A térkép megváltoztatása: kattintson a fekete keresztel jelölt zöld gombra ráközelítéshez, a vonallal jelölt zöld gombra távolításhoz, vagy a zöld nyilakra a szomszédos térképek eléréséhez.


METAR-TAF: